Vertical_Velocity
-0 0 3 -5 1 2 3 6 5 -0 1 2 1 4 -2 -1 -0 -0 0 -0 2 3 2 -0 -6 7 -6 -3 2 -2 -0 -1 -1 -1 -3 1 6 3 -1 -1 4 -2 -3
1 0 1 -5 1 3 1 1 2 2 2 0 1 2 0 2 -3 -3 -3 -0 0 -1 -2 -1 2 3 -1 -0 -4 -1 -1 -2 -2 -1 -2 -1 -3 -2 -1 -1 1 1 2
-1 -0 3 -3 1 3 2 0 -0 1 1 1 1 1 -0 1 1 -4 -2 -1 0 0 0 2 0 -3 -3 1 1 -2 1 1 2 -1 -0 -4 -1 -0 0 2 3 3 2
-1 -1 2 -0 0 1 2 2 -0 0 0 -0 -0 -0 1 0 1 2 -1 -2 -3 -1 -0 1 5 4 -1 -2 -0 -0 -5 -2 -2 1 3 -2 0 -0 -2 -4 -5 0 5
-1 2 2 0 0 -1 0 -1 -0 -1 -1 1 0 0 0 -0 0 -1 0 -1 -1 -1 -2 1 -2 -2 -1 1 -3 1 5 -3 -6 -2 0 -3 -2 -0 0 0 -2 1 -1
-0 -2 1 -1 0 0 -1 -3 0 -2 -1 0 1 -0 -0 -0 -0 -2 -2 -1 -2 -4 -1 -2 -1 -2 -2 1 -4 0 -3 3 3 -0 -3 4 -5 -0 -0 0 2 -1 -0
1 -2 1 -0 1 1 -0 0 -4 -2 -0 -3 1 -0 -1 0 1 0 -1 -2 -0 0 -1 -3 -0 1 2 2 2 3 4 -2 2 1 2 -0 1 -1 -1 -2 -4 -2 -4
0 0 0 -0 1 1 0 1 0 1 0 1 0 1 -3 -2 -2 0 1 -1 -1 -0 -3 -2 -5 -4 -2 -3 -2 -1 1 2 1 -2 2 1 0 1 -0 -0 -0 0 -1
-2 -2 -1 0 -0 0 -0 1 1 0 1 1 0 1 1 -2 -3 -3 -1 2 1 1 1 -0 -0 2 -5 -1 -1 -1 -2 -1 0 0 -1 1 1 -2 -0 -1 0 3 -2
-1 0 -0 0 1 -1 -1 1 0 -0 -0 0 -0 0 2 -0 2 0 -1 -2 -1 -1 2 1 0 0 2 -0 -3 -2 0 -1 -3 -0 -2 -2 -1 -1 0 2 -1 2 -0
0 0 -0 -1 1 -2 0 -1 -1 -1 -1 -0 1 0 0 1 -0 1 1 0 1 -1 -2 1 -0 -0 0 1 1 -2 -0 2 3 1 -0 -0 1 1 4 -0 2 1 3
-0 1 0 0 -2 -1 -1 0 -0 -1 -1 -0 -1 -1 -1 -1 -1 -0 -1 1 0 2 2 -0 1 -2 -1 1 0 -0 -2 -4 -1 3 1 -4 1 1 -0 2 -1 1 1
-1 -0 -0 -0 -1 -1 0 -1 0 -1 -1 -1 -2 -2 -1 -0 -1 -1 1 -1 0 0 0 1 1 1 -0 -1 -0 -1 -0 0 -3 -2 1 3 -2 1 2 4 -1 1 0
0 -0 -0 -1 -1 -1 -3 -1 -2 -1 -2 -1 -2 -2 -1 -1 -2 -2 -4 -3 -2 -2 -1 -1 0 -0 -2 1 -2 -1 -1 -2 -1 -1 -0 1 2 0 -2 -1 0 5 4
0 -0 -0 -1 -1 -1 -0 -2 -1 -2 -2 -1 0 -2 -2 -2 -4 -3 -3 -1 -3 -2 -3 -2 -3 -1 1 0 1 -2 -2 0 1 -4 0 2 -2 -1 0 2 -0 -0 -1
-1 -1 -1 1 1 -2 -2 -4 -4 -2 -2 -2 -2 -3 -1 -1 -1 -1 -2 -2 -1 -2 -2 -3 -5 -4 -2 -4 0 -0 -2 2 -0 1 -5 -0 1 -0 -2 1 3 3 -2
2 2 1 1 -0 1 -1 -2 -2 -2 -1 -2 -3 -3 -3 -2 -3 -3 -3 -2 -3 -2 -1 -0 0 -0 -1 -1 -4 -0 -3 0 -1 1 -1 -3 2 1 -1 -2 -2 0 3
-0 -0 -0 -0 -1 -1 -0 0 -1 -1 -1 -1 -0 -1 -2 -3 -3 -3 -3 -2 -3 -3 -4 -3 -5 -1 -3 -5 -6 -3 -3 -1 0 0 -1 -0 -3 -0 1 4 -3 -0 0
-2 -2 -3 -2 -1 -1 -1 0 1 1 -0 -2 -2 -2 -2 -2 -3 -3 -3 -4 -5 -6 -6 -5 -2 -5 -7 -3 -6 -4 -2 -3 -2 -2 -4 -2 -4 -4 -3 -3 -2 -1 2
-0 -1 -1 0 1 2 1 1 0 0 -2 -2 -2 -3 -3 -3 -2 -1 -1 -2 -2 -1 -1 -1 -5 0 -3 -6 -6 -5 -6 -3 0 1 -3 -3 1 1 -2 -3 -1 -4 -2
-1 -1 1 3 2 1 2 1 -1 -3 -3 -4 -4 -3 -3 -3 -1 -1 -1 -1 -1 -3 -6 -5 -4 -6 -3 -6 -9 -2 -2 -1 -3 -0 -1 6 -2 -2 1 1 -0 -0 -1
-1 0 2 0 -2 -1 -0 1 -1 -2 -3 -3 -4 -4 -4 -3 -3 -4 -4 -4 -4 -2 -2 -3 -5 -7 -4 -4 -4 -1 -14 -26 -5 6 3 -2 3 4 -1 -1 -0 -3 -0
1 3 1 -1 -2 -1 -2 -4 -3 -2 1 2 2 1 -0 -1 -1 -1 -2 -2 -3 -4 -5 -5 -5 -5 -7 -1 3 -2 -6 -2 -26 -14 -1 -0 1 -1 6 -2 -1 -1 -5
-1 -0 -1 -1 -2 -1 0 0 -0 -2 -2 -3 -3 -3 -2 -3 -4 -4 -5 -5 -6 -8 -5 -4 -3 -4 -5 -5 -2 4 6 6 -4 -20 -16 -14 -1 -3 1 4 0 -4 3
-2 -2 -1 -2 -4 -1 -1 -3 -2 -1 -0 -1 -2 -0 -1 -3 -3 -3 -4 -4 -3 -2 -3 -4 -1 -1 -3 -3 -3 -5 -1 -1 1 13 -13 -37 -1 5 1 -5 1 3 -2
-1 -0 -1 -5 -4 -1 -0 0 1 0 -0 -1 -1 -1 -2 -2 -2 -3 -4 -4 -4 -4 -4 -3 -2 -0 -1 -2 -1 -0 -1 -3 -5 6 -2 -7 -13 -17 -6 3 -8 -4 -1
Height
1572 1570 1570 1568 1569 1569 1568 1567 1566 1565 1564 1562 1562 1561 1560 1559 1558 1557 1556 1555 1554 1553 1551 1551 1552 1552 1549 1550 1548 1548 1548 1548 1547 1546 1546 1547 1547 1546 1546 1546 1546 1545 1545
1571 1570 1569 1568 1569 1569 1568 1567 1566 1565 1564 1563 1562 1562 1562 1561 1560 1558 1556 1555 1554 1554 1553 1553 1553 1551 1551 1552 1550 1550 1549 1550 1549 1548 1548 1548 1548 1548 1549 1549 1548 1547 1547
1572 1570 1569 1567 1568 1568 1569 1568 1567 1566 1565 1564 1563 1562 1561 1561 1561 1560 1559 1558 1558 1556 1555 1555 1554 1553 1553 1553 1551 1551 1551 1550 1551 1549 1549 1549 1550 1549 1550 1549 1550 1549 1548
1571 1570 1569 1567 1567 1568 1568 1568 1568 1568 1566 1565 1564 1563 1562 1561 1560 1560 1560 1559 1557 1556 1554 1555 1554 1554 1553 1553 1552 1552 1551 1551 1551 1552 1550 1550 1550 1550 1550 1551 1551 1550 1550
1572 1570 1568 1566 1566 1567 1568 1568 1568 1568 1567 1566 1565 1564 1563 1561 1560 1560 1559 1558 1557 1557 1556 1555 1555 1555 1554 1553 1552 1554 1553 1551 1552 1552 1550 1551 1551 1551 1551 1551 1552 1551 1551
1572 1571 1569 1567 1566 1567 1567 1568 1568 1568 1567 1566 1565 1564 1563 1562 1561 1560 1560 1559 1558 1558 1558 1556 1555 1554 1553 1552 1553 1552 1552 1551 1552 1551 1551 1551 1552 1551 1552 1552 1552 1551 1552
1572 1572 1570 1567 1567 1566 1566 1566 1567 1568 1567 1566 1566 1564 1563 1562 1561 1560 1560 1559 1559 1557 1556 1556 1555 1555 1554 1553 1552 1552 1552 1552 1552 1551 1551 1551 1551 1551 1550 1551 1553 1552 1553
1571 1571 1570 1569 1568 1567 1566 1565 1565 1565 1566 1566 1565 1564 1562 1562 1560 1560 1560 1559 1558 1558 1557 1555 1554 1553 1553 1552 1552 1551 1551 1551 1551 1551 1550 1551 1551 1550 1551 1551 1551 1552 1552
1572 1571 1571 1570 1569 1568 1566 1566 1564 1564 1564 1564 1563 1563 1562 1561 1560 1559 1559 1558 1557 1556 1556 1555 1554 1553 1551 1551 1551 1550 1550 1549 1549 1549 1549 1549 1550 1550 1551 1551 1550 1551 1551
1572 1571 1571 1570 1568 1567 1566 1565 1564 1564 1563 1562 1561 1561 1560 1559 1559 1558 1558 1556 1555 1554 1555 1554 1553 1552 1551 1550 1549 1548 1549 1548 1548 1547 1547 1548 1549 1550 1550 1550 1549 1549 1551
1572 1572 1571 1570 1568 1567 1566 1564 1564 1563 1562 1562 1560 1559 1558 1557 1556 1555 1555 1554 1553 1553 1552 1552 1552 1551 1550 1549 1548 1547 1547 1547 1547 1547 1546 1546 1547 1548 1548 1548 1548 1548 1548
1572 1571 1571 1569 1568 1568 1566 1564 1563 1562 1562 1560 1559 1558 1556 1555 1554 1553 1552 1551 1551 1551 1550 1550 1550 1549 1548 1547 1546 1546 1545 1544 1544 1545 1545 1545 1546 1546 1546 1546 1546 1546 1547
1572 1571 1570 1569 1568 1567 1566 1564 1563 1562 1561 1559 1557 1556 1555 1554 1552 1552 1550 1549 1548 1547 1546 1546 1547 1546 1545 1545 1544 1544 1543 1542 1542 1543 1544 1544 1544 1544 1544 1543 1544 1544 1544
1573 1572 1571 1570 1569 1567 1566 1564 1562 1561 1560 1559 1556 1555 1553 1551 1550 1550 1549 1547 1545 1543 1543 1542 1542 1541 1541 1542 1541 1541 1541 1540 1540 1540 1542 1542 1542 1542 1542 1541 1541 1541 1541
1572 1571 1571 1570 1569 1567 1566 1564 1563 1562 1560 1558 1555 1553 1552 1550 1549 1548 1547 1545 1543 1542 1541 1540 1539 1538 1537 1537 1537 1537 1538 1538 1538 1537 1538 1539 1539 1539 1538 1539 1539 1538 1538
1572 1572 1572 1570 1568 1566 1566 1564 1563 1563 1560 1558 1555 1553 1552 1550 1548 1547 1545 1543 1542 1540 1539 1537 1536 1535 1533 1532 1533 1534 1534 1533 1534 1535 1534 1536 1536 1536 1536 1535 1536 1535 1536
1572 1571 1570 1569 1567 1566 1565 1564 1563 1561 1559 1557 1555 1554 1552 1550 1548 1547 1544 1542 1539 1538 1537 1535 1534 1533 1530 1528 1529 1528 1527 1527 1529 1530 1530 1531 1532 1532 1532 1532 1532 1532 1532
1570 1569 1569 1568 1568 1567 1565 1563 1561 1559 1557 1555 1554 1552 1551 1549 1547 1545 1543 1541 1538 1537 1535 1533 1530 1528 1525 1524 1523 1523 1522 1523 1524 1525 1526 1526 1526 1528 1529 1528 1527 1528 1528
1569 1569 1569 1568 1566 1565 1563 1562 1560 1559 1557 1556 1555 1552 1550 1548 1547 1544 1542 1541 1539 1537 1535 1532 1529 1525 1521 1519 1518 1517 1517 1517 1518 1520 1521 1521 1523 1523 1523 1524 1523 1522 1523
1567 1567 1567 1566 1565 1565 1564 1562 1561 1560 1558 1556 1554 1551 1549 1547 1545 1543 1541 1538 1536 1534 1532 1531 1528 1526 1520 1515 1513 1511 1512 1512 1512 1512 1514 1516 1517 1518 1518 1518 1517 1517 1518
1564 1564 1564 1564 1564 1563 1563 1562 1561 1559 1557 1555 1553 1551 1549 1547 1545 1542 1540 1538 1535 1532 1530 1527 1524 1522 1520 1514 1507 1503 1505 1506 1505 1507 1507 1507 1509 1510 1510 1511 1511 1510 1511
1562 1562 1563 1563 1561 1560 1560 1559 1558 1556 1555 1553 1552 1550 1549 1547 1545 1542 1540 1538 1535 1533 1530 1527 1524 1521 1519 1514 1509 1503 1496 1496 1499 1503 1501 1502 1503 1501 1501 1502 1504 1504 1504
1559 1560 1560 1559 1559 1559 1558 1557 1556 1555 1554 1553 1552 1551 1548 1546 1544 1542 1540 1537 1535 1533 1531 1528 1525 1523 1520 1518 1516 1514 1508 1504 1494 1493 1498 1497 1496 1495 1493 1493 1495 1496 1496
1556 1557 1558 1557 1557 1558 1557 1556 1555 1554 1552 1550 1549 1548 1547 1545 1544 1542 1539 1537 1535 1533 1532 1529 1526 1524 1522 1520 1518 1516 1516 1512 1506 1488 1487 1490 1489 1490 1487 1486 1486 1488 1487
1552 1553 1554 1555 1555 1556 1555 1554 1553 1552 1550 1549 1548 1548 1547 1545 1543 1541 1539 1536 1534 1532 1530 1529 1527 1523 1521 1521 1518 1514 1511 1508 1508 1504 1490 1481 1481 1482 1481 1479 1479 1480 1479
1547 1549 1550 1551 1552 1553 1553 1552 1551 1550 1549 1548 1548 1546 1545 1544 1542 1541 1539 1536 1534 1531 1529 1528 1525 1523 1520 1518 1517 1514 1511 1508 1504 1504 1495 1491 1482 1471 1474 1472 1473 1474 1473